Location: NJAA Observatory
(40.6819°N, 74.8979°W)
Time: 21:29:53
(UTC-04:00)

Transit 2A Rocket - Visible Passes

Search period start: 31 July 2015 00:00
Search period end: 10 August 2015 00:00
Orbit: 590 x 915 km, 66.7° (Epoch: 30 July)

Date Brightness Start Highest point End Pass type
(mag) Time Alt. Az. Time Alt. Az. Time Alt. Az.
31 Jul 8.0 05:14:43 10° NNE 05:16:27 12° NE 05:18:19 10° ENE visible
31 Jul 5.1 21:28:13 10° SSW 21:34:06 72° ESE 21:39:35 10° NE visible
31 Jul 7.6 23:12:57 10° W 23:17:15 21° NW 23:21:12 10° N visible
01 Aug 5.6 20:46:30 10° S 20:52:00 42° ESE 20:57:13 10° NE visible
01 Aug 7.0 22:29:38 10° WSW 22:34:47 32° NW 22:39:34 10° N visible
02 Aug 6.1 21:46:47 10° SW 21:52:27 50° NW 21:57:43 10° NNE visible
02 Aug 8.4 23:36:00 10° NW 23:36:22 10° NW 23:36:29 10° NW visible
03 Aug 7.8 04:50:01 10° N 04:52:54 16° NE 04:55:49 10° E visible
03 Aug 5.3 21:04:20 10° SSW 21:10:14 81° WNW 21:15:42 10° NNE visible
03 Aug 8.1 22:50:21 10° WNW 22:53:41 15° NW 22:56:43 10° N visible
04 Aug 8.3 04:09:36 10° NNE 04:10:15 10° NE 04:11:06 10° NE visible
04 Aug 7.6 22:06:35 10° W 22:11:08 23° NW 22:15:19 10° N visible
05 Aug 6.3 05:07:23 10° NNW 05:11:41 38° NE 05:15:45 10° ESE visible
05 Aug 6.9 21:23:25 10° WSW 21:28:43 36° NW 21:33:37 10° NNE visible
06 Aug 7.3 04:25:40 10° N 04:29:16 23° NE 04:32:48 10° E visible
06 Aug 6.0 20:40:41 10° SW 20:46:25 57° WNW 20:51:43 10° NNE visible
06 Aug 8.5 22:28:24 10° WNW 22:30:11 11° NW 22:31:41 10° NNW visible
07 Aug 7.9 03:44:18 10° N 03:46:43 14° NE 03:49:12 10° ENE visible
07 Aug 4.5 05:25:29 10° NNW 05:30:01 75° WSW 05:34:18 10° SSE visible
07 Aug 8.1 21:43:50 10° W 21:47:32 17° NW 21:50:54 10° N visible
08 Aug 5.2 04:43:22 10° NNW 04:47:51 58° ENE 04:52:06 10° SE visible
08 Aug 7.6 21:00:16 10° WSW 21:05:01 26° NW 21:09:24 10° N visible
09 Aug 6.4 04:01:28 10° NNW 04:05:34 32° NE 04:09:29 10° ESE visible
